Regional Weather Roundup
Issued by NWS Spokane, WA

Home | Current Version | Previous Version | Text Only | Print | Product List | Glossary On
Versions: 1 2 3 4 5 6 7 8 9 10 11 12 13 14 15 16 17 18 19 20 21 22 23 24 25 26 27 28 29 30 31 32 33 34 35 36 37 38 39 40 41 42 43 44 45 46 47 48 49 50
982
NZUS01 KOTX 151857
RWROTX

Eastern Washington/Northern Idaho Roundup
National Weather Service, Spokane WA
1100 AM PST FRI DEC 15 2017

Note: "fair" indicated few or no clouds below 12,000 feet with no
significant weather and/or obstructions to visibility.

...Northeast Washington and Northern Idaho Panhandle...

CITY           SKY/WX    TMP DP  RH WIND       PRES   REMARKS
Spokane Intl   HVY SNOW  27  27 100 W9        30.12R VSB 1/4 WCI  18
Spokane Downto SNOW      30  29  96 W6        30.14F VSB 1/2 WCI  24
Deer Park      HVY SNOW  29  28  96 SW5       30.12F VSB 1/4 WCI  24

...Southeast Washington and southern Idaho Panhandle...

CITY           SKY/WX    TMP DP  RH WIND       PRES   REMARKS
Walla Walla    CLOUDY    30  26  85 W6        30.22S WCI  24
Pullman/Moscow CLOUDY    30  27  88 W6        30.12S WCI  24
Lowell           N/A     36  30  79 NE3       30.16F

...Columbia Basin...

CITY           SKY/WX    TMP DP  RH WIND       PRES   REMARKS
Ephrata        MIX PCPN  31  26  82 S7        30.15F WCI  24
Moses Lake     MIX PCPN  30  30 100 S9        30.16F FOG     WCI  22
Pasco          CLOUDY    33  28  81 SW7       30.27F WCI  27
Hermiston      MIX PCPN  32  26  78 SW5       30.25S WCI  27
Pendleton      CLOUDY    28  24  85 SW6       30.20F WCI  22

...East Slopes Cascades...

CITY           SKY/WX    TMP DP  RH WIND       PRES   REMARKS
The Dalles     PTSUNNY   37  27  67 S3        30.27F
Yakima         FRZ RAIN  33  30  88 CALM      30.22S FOG
Ellensburg     CLOUDY    31  27  85 SE7       30.13F WCI  24
Wenatchee      CLOUDY    30  28  93 E9        30.14F WCI  22
Omak           CLOUDY    33  30  88 S5        30.16F WCI  29
Sunnyside      CLOUDY    31  26  83 CALM      30.24F

...Southern British Columbia...

CITY           SKY/WX    TMP DP  RH WIND       PRES   REMARKS
Cranbrook      PTSUNNY   23  19  86 W5        29.98F WCI  17

...Western Montana...

CITY           SKY/WX    TMP DP  RH WIND       PRES   REMARKS
Missoula       CLOUDY    25  24  96 SE3       30.04F FOG

...Neighboring Cities...

CITY           SKY/WX    TMP DP  RH WIND       PRES   REMARKS
Portland       CLOUDY    38  30  73 S6        30.30F
Boise          CLOUDY    26  21  81 S6        30.28F WCI  19
Great Falls    CLOUDY    47  14  26 SW37G51   29.76F



USA.gov is the U.S. government's official web portal to all federal, state and local government web resources and services.